GFSMW_850_spd_162.txt.gz
Wind_Speed
17 12 8 7 5 4 3 4 5 7 8 10 12 13 14 13 13 14 15 15 17 18 19 17 19 19 19 22 23 26 26 22 18 21 25 31 37 40 39 40 40 33 30
18 14 9 8 6 4 4 4 5 7 8 10 12 13 14 12 13 15 16 16 17 18 18 19 19 20 21 20 20 21 23 23 16 16 20 25 30 33 33 37 41 43 35
21 16 10 7 5 5 4 4 4 7 9 12 12 13 11 10 11 16 15 19 19 19 20 20 20 20 21 22 22 21 20 22 24 18 14 12 24 27 28 29 33 44 43
21 16 11 7 6 5 3 3 4 7 10 12 13 14 13 13 16 15 17 19 20 21 20 21 21 22 22 21 21 21 21 20 26 21 19 21 28 21 18 19 23 31 39
21 17 12 8 6 5 3 3 5 7 10 12 13 12 13 13 12 14 17 18 19 21 22 21 21 22 22 22 21 22 23 22 24 24 26 26 25 33 34 31 32 32 28
19 16 11 8 5 4 3 3 5 7 10 12 13 14 15 15 14 14 16 17 20 20 21 22 23 23 24 24 24 24 24 24 25 26 26 28 24 21 27 36 40 34 35
21 17 12 8 5 2 2 4 5 7 10 12 13 15 16 15 15 15 17 19 18 19 21 24 24 24 23 24 26 27 25 23 25 26 28 28 29 30 29 31 41 36 28
19 16 12 8 4 2 2 4 6 8 11 13 14 15 15 14 14 14 17 17 18 21 25 25 26 25 23 24 25 29 27 26 25 26 28 31 30 29 31 32 31 40 42
19 16 11 8 5 2 4 6 8 10 13 15 16 16 16 16 16 17 16 17 19 21 24 25 25 24 24 24 26 28 29 29 28 28 32 30 31 34 35 36 34 36 37
19 16 12 8 5 2 4 7 10 12 14 16 17 18 17 17 19 19 18 20 22 24 25 25 25 25 23 24 26 28 28 28 30 28 31 35 32 35 37 40 38 40 41
19 16 12 9 5 1 3 7 10 12 14 16 18 18 19 19 20 21 20 21 23 24 25 25 26 25 24 24 25 26 27 27 30 32 31 33 32 36 39 39 43 43 43
20 16 12 8 4 0 4 8 11 13 15 16 18 18 19 20 20 21 22 21 23 23 24 24 25 25 24 25 25 28 28 30 33 34 36 37 36 36 41 41 45 44 44
18 15 14 10 5 2 5 8 11 13 15 17 17 17 18 19 19 21 23 22 23 23 24 24 24 25 24 25 26 25 30 34 37 38 38 40 40 41 38 43 39 47 47
20 16 13 9 4 2 6 9 11 13 16 16 16 17 19 19 20 22 23 22 23 24 24 24 24 24 24 25 23 31 35 36 39 40 39 38 39 38 34 37 43 39 47
20 16 14 9 3 3 7 11 12 13 15 14 15 17 18 18 19 22 22 22 23 22 24 24 25 24 26 21 31 34 36 40 41 39 36 36 38 36 36 37 41 36 41
20 16 12 8 1 5 9 11 12 13 12 12 13 14 16 18 22 21 21 21 22 22 23 22 24 27 26 26 29 31 36 38 36 39 36 35 38 35 32 31 36 51 47
19 16 12 6 1 5 8 9 10 10 10 11 12 14 17 20 21 20 21 22 22 23 23 23 25 26 25 29 29 31 35 33 34 35 35 40 35 36 34 32 31 42 47
21 16 10 2 2 5 7 8 9 9 10 11 13 14 19 18 18 19 22 22 22 23 23 23 25 26 26 31 32 34 35 33 31 33 32 34 37 34 35 37 37 38 45
17 14 7 4 1 3 5 6 7 9 10 13 14 14 16 18 19 19 21 22 23 23 23 22 25 25 28 33 35 38 36 36 36 34 30 30 32 34 36 36 42 41 45
15 12 7 3 2 4 5 6 8 10 11 12 13 13 15 16 17 19 20 22 22 21 22 23 24 25 29 34 36 37 35 37 40 35 31 30 31 33 36 35 37 46 48
14 11 8 7 6 6 7 7 8 10 11 12 12 13 15 15 17 19 18 20 21 21 23 23 24 25 30 34 37 38 37 36 38 33 34 32 27 28 29 27 35 41 42
12 10 9 8 7 7 7 8 10 10 10 11 12 13 14 16 18 17 18 18 21 22 24 25 26 27 32 36 38 38 36 33 33 33 32 32 27 27 27 22 24 39 36
11 10 10 9 8 9 9 9 10 11 10 10 12 14 15 15 16 17 18 19 21 23 25 27 28 32 33 35 37 37 36 35 33 32 33 35 31 32 32 28 19 14 19
12 11 10 10 9 9 9 10 10 11 10 12 13 13 14 15 16 16 17 18 21 23 25 28 28 31 34 36 38 36 38 38 37 38 41 40 41 41 38 41 34 23 6
12 11 10 10 10 9 9 10 11 12 11 12 13 14 14 16 15 15 16 17 18 21 23 26 25 28 32 36 34 31 35 39 39 43 46 49 50 51 52 49 46 38 26
12 12 11 10 10 9 9 11 12 13 13 12 13 15 13 14 15 15 15 17 19 20 23 24 25 25 26 30 32 29 32 36 39 45 50 52 54 52 52 54 51 46 40

GFSMW_850_spd_165.txt.gz
Wind_Speed
21 18 15 11 9 7 5 7 6 6 4 3 5 5 7 9 9 9 14 15 16 17 17 14 15 15 15 17 18 19 21 21 21 24 23 25 26 30 31 36 34 32 37
24 19 15 12 10 7 6 3 3 4 3 3 5 7 9 9 9 9 14 13 16 16 15 16 17 16 18 18 17 20 22 21 18 18 23 18 18 21 24 29 31 38 39
28 22 17 14 10 8 5 4 3 3 5 4 5 7 7 8 8 11 11 13 14 15 16 16 18 19 19 18 20 19 18 20 21 15 12 12 11 31 13 15 26 30 32
26 22 19 15 11 8 7 5 3 1 4 5 6 8 8 9 11 11 12 15 14 16 16 17 19 20 20 20 20 20 19 20 22 20 15 18 22 15 23 22 24 17 21
25 22 19 15 11 8 6 5 2 0 3 5 6 7 8 9 11 12 15 14 15 15 16 17 18 20 21 21 21 22 21 21 22 24 22 22 24 24 27 39 32 31 36
23 20 17 14 11 7 6 5 4 2 3 4 6 7 9 10 11 13 14 14 16 16 16 19 21 20 21 22 22 24 24 23 24 23 24 24 25 24 26 32 34 34 29
21 20 17 14 11 8 6 5 4 2 2 4 5 7 8 10 10 12 13 16 16 16 17 21 22 23 23 23 22 23 25 25 25 25 27 26 26 28 31 34 38 37 37
21 20 17 15 11 8 6 5 3 2 2 4 6 7 9 8 10 12 13 14 16 17 20 21 22 24 24 24 24 25 24 25 27 28 27 29 29 32 36 33 34 37 36
20 19 17 15 12 8 6 4 3 2 3 5 6 7 8 9 11 13 13 13 16 18 20 22 22 24 24 24 24 26 27 27 28 30 29 29 29 32 33 34 31 35 37
19 19 17 15 12 9 6 3 2 2 3 5 6 6 6 8 10 12 13 15 16 19 20 21 22 23 24 23 22 25 26 29 27 28 28 29 34 31 33 32 36 39 39
19 19 17 14 11 8 5 3 2 2 3 5 7 8 10 11 11 11 14 15 17 18 20 21 22 23 23 23 24 24 26 27 29 31 31 32 33 33 34 33 33 39 43
18 18 17 14 10 7 5 2 2 2 4 6 8 8 10 13 13 13 16 16 16 18 20 21 22 22 23 23 24 26 26 28 32 35 36 35 35 37 35 37 38 37 41
20 18 17 16 10 6 4 3 2 4 6 8 8 9 11 13 13 15 17 17 16 17 19 20 22 24 24 24 24 24 30 35 34 35 37 37 38 38 35 37 38 38 39
22 21 20 18 11 7 4 2 3 5 6 7 8 9 11 13 13 15 16 17 18 18 18 20 20 21 23 23 22 31 34 37 39 40 38 36 34 37 35 36 43 40 40
22 19 17 17 11 6 1 2 3 4 7 7 8 9 11 12 14 16 17 16 17 18 18 21 21 21 23 20 30 33 33 39 40 38 36 36 35 36 37 37 38 39 38
21 18 13 14 10 5 2 3 5 6 7 7 8 10 12 13 14 15 16 18 19 18 20 20 20 23 21 25 31 32 36 37 34 36 36 37 38 34 35 39 37 40 39
20 18 15 11 9 5 2 1 3 4 6 7 9 10 12 13 15 16 15 18 19 19 19 20 21 23 23 28 32 33 35 33 33 35 36 38 35 35 37 39 42 45 44
22 18 15 11 7 5 3 4 3 5 5 7 8 10 12 13 15 16 16 18 19 21 21 21 21 24 23 29 32 34 34 33 33 34 35 33 36 37 37 46 51 50 45
21 18 14 10 8 6 5 5 4 5 6 8 8 10 11 13 14 17 18 18 19 19 20 20 22 23 24 29 34 37 35 35 38 37 33 31 35 37 41 41 44 48 50
19 17 14 11 8 7 6 6 5 5 6 7 8 10 11 12 14 16 17 17 19 19 19 21 22 22 26 30 34 36 34 36 41 40 35 33 34 36 37 36 36 43 47
19 15 13 10 9 8 7 6 5 6 6 7 8 9 11 12 15 15 15 16 17 19 21 22 22 23 27 31 33 34 33 34 39 39 39 36 35 33 32 32 31 37 43
17 14 13 12 9 8 7 6 7 6 6 7 8 9 11 12 13 14 15 15 18 19 22 24 25 26 28 29 33 34 33 33 36 37 38 39 38 35 32 32 35 36 34
16 14 13 12 11 10 8 7 7 7 7 7 8 9 11 10 12 13 16 17 19 21 23 25 27 29 29 31 34 34 34 33 35 33 35 38 39 40 40 38 38 39 38
15 14 13 12 12 10 9 9 8 7 7 7 8 8 10 11 12 13 14 16 18 21 23 25 27 29 32 36 38 36 34 35 36 36 39 41 44 45 47 46 45 44 45
15 14 13 13 11 9 9 9 8 8 7 7 8 9 10 12 12 13 17 16 16 19 21 25 25 29 31 35 35 36 33 35 36 37 42 46 50 51 53 53 53 51 51
15 14 13 13 11 10 9 8 8 8 8 8 9 11 10 11 12 12 12 17 21 22 22 25 24 26 26 30 32 34 30 31 35 36 42 47 49 50 54 55 56 54 54

GFSMW_850_spd_168.txt.gz
Wind_Speed
24 21 18 17 11 11 8 9 8 7 5 5 4 3 5 6 6 8 13 14 17 17 16 17 17 17 19 19 17 21 23 24 24 29 30 27 16 12 19 25 29 24 28
28 25 20 14 12 8 8 4 5 6 6 6 3 4 4 6 10 8 11 13 17 16 16 17 19 20 22 19 18 20 22 21 21 22 25 17 26 10 11 12 11 23 31
32 29 22 16 14 9 9 6 6 4 6 2 1 2 5 4 5 10 9 14 15 17 17 18 18 20 21 21 20 19 18 22 22 17 12 11 10 38 18 21 22 21 16
34 32 24 18 13 13 11 9 7 3 5 4 2 2 2 1 5 6 10 12 11 16 17 19 20 20 21 21 21 20 21 19 21 21 13 14 23 20 26 25 37 31 25
34 34 24 20 15 13 9 9 5 5 4 2 1 1 1 2 3 7 11 10 13 11 13 17 22 21 20 21 21 22 23 20 19 20 22 20 21 22 29 36 29 42 32
32 26 23 18 17 14 10 7 6 5 4 2 2 2 3 5 7 9 10 13 13 14 14 19 22 23 23 23 23 22 21 21 22 20 20 20 22 26 29 36 38 38 43
31 28 24 20 14 9 9 8 8 6 4 2 2 3 4 5 7 9 11 14 14 16 18 22 23 25 23 23 23 23 22 21 22 22 25 24 22 23 28 32 40 43 41
30 27 23 17 13 12 9 8 6 3 2 1 1 4 5 5 5 11 13 11 13 15 19 21 24 24 24 24 23 22 22 22 23 23 25 25 25 23 23 28 33 43 42
24 22 20 17 17 12 10 9 6 4 1 0 2 3 4 7 8 12 13 13 14 16 17 21 22 22 24 24 23 23 23 22 24 25 23 24 27 28 28 28 29 33 41
22 20 19 19 15 14 12 10 8 6 4 1 2 4 6 8 9 11 14 16 15 14 18 20 21 21 23 23 22 23 24 25 24 25 26 29 30 30 31 31 31 30 38
21 21 20 18 16 13 9 8 7 5 2 1 3 4 7 9 8 10 13 15 15 15 16 19 19 22 22 23 23 23 22 24 29 33 32 31 32 30 29 32 32 33 34
22 23 22 21 18 14 10 9 6 4 1 2 3 5 9 9 9 12 14 14 14 15 17 17 20 20 21 22 24 21 24 30 33 34 35 34 32 32 31 33 34 35 35
23 25 24 23 19 15 11 7 6 3 0 2 2 5 7 9 10 13 14 15 16 17 17 17 19 21 22 24 21 24 33 33 32 35 33 33 33 32 32 32 35 35 34
23 28 31 28 21 15 11 9 5 2 2 1 2 5 6 7 11 13 13 14 15 15 16 18 19 18 22 20 24 31 33 33 33 32 30 30 32 32 32 35 36 36 37
27 26 30 28 19 15 11 7 5 2 2 1 2 3 6 8 11 11 12 13 16 17 17 18 19 20 22 19 28 32 33 33 32 31 31 31 29 30 28 30 34 36 38
27 25 25 22 17 12 8 5 1 3 1 1 3 4 7 7 10 11 11 12 15 16 19 19 19 22 21 22 28 30 33 32 30 31 34 33 30 29 31 29 32 35 40
33 26 22 20 16 11 8 5 3 1 3 5 3 5 7 9 11 12 11 13 15 18 18 19 21 21 21 25 29 32 31 29 29 31 34 34 32 34 34 37 42 42 39
28 23 21 19 15 11 7 6 5 5 5 4 3 6 8 9 10 12 13 13 14 17 20 19 21 22 21 27 31 33 33 30 29 33 32 31 33 33 38 42 43 41 38
27 25 19 16 14 11 9 8 7 6 5 4 4 6 8 8 11 10 13 13 14 16 18 19 20 21 23 27 31 34 33 32 33 34 31 30 31 35 39 40 40 39 39
30 24 21 17 14 11 10 8 7 5 5 4 4 6 7 9 11 12 10 12 14 14 17 19 19 19 23 26 30 34 35 35 36 36 34 32 32 36 36 36 35 37 43
24 21 19 16 13 12 11 8 6 5 5 4 4 6 7 7 8 10 12 11 14 15 18 19 20 19 22 28 30 33 33 34 38 38 37 35 35 33 34 33 34 38 40
22 20 19 15 13 12 10 9 7 6 5 5 5 5 8 7 7 9 12 14 16 17 19 22 23 23 24 28 31 33 32 30 35 37 35 36 35 34 34 35 35 35 36
18 18 18 17 14 12 10 9 8 6 6 6 6 5 7 7 9 12 12 15 18 20 21 27 27 28 28 33 36 38 33 31 36 34 30 34 37 37 38 39 42 44 46
18 16 17 16 14 13 11 9 9 7 7 6 8 5 7 7 9 12 14 18 22 23 21 29 31 29 31 36 39 40 39 36 39 37 36 39 42 43 44 45 47 48 50
17 17 17 17 15 13 11 9 10 8 8 5 7 6 6 8 9 14 16 19 23 24 23 29 31 29 30 33 32 35 35 33 37 34 39 44 48 50 51 51 51 52 54
18 18 18 17 15 13 11 10 9 12 8 7 4 8 7 8 9 9 10 13 17 18 19 25 27 26 23 27 29 32 31 29 34 36 40 41 45 46 50 52 55 55 56

GFSMW_850_spd_174.txt.gz
Wind_Speed
42 42 39 37 34 27 21 18 16 17 15 12 9 7 3 4 4 3 7 10 10 11 13 15 17 19 22 23 24 24 25 26 29 30 30 22 15 8 8 10 11 10 12
41 43 42 40 36 30 23 19 18 18 16 15 12 10 9 6 3 2 6 9 11 12 13 15 17 20 22 23 24 25 25 24 26 25 22 18 18 9 17 23 15 16 17
49 48 46 41 35 30 24 20 17 17 16 15 14 15 11 8 5 2 5 6 9 12 15 18 19 21 22 24 24 23 23 22 22 20 12 10 8 36 8 26 20 25 26
49 54 49 42 36 29 23 20 17 15 14 14 14 14 15 13 8 5 4 5 8 11 15 18 21 22 22 22 21 21 20 19 20 19 15 11 15 11 21 19 39 24 34
53 56 52 44 35 28 23 18 14 13 13 14 14 15 14 11 8 4 3 5 8 11 14 17 19 21 22 21 19 17 17 17 17 17 19 20 20 17 21 32 34 39 33
43 39 46 41 34 27 21 16 14 13 12 12 12 12 12 10 7 5 4 5 8 10 14 16 18 20 21 21 18 16 15 15 14 14 15 17 21 25 26 31 32 33 39
41 46 49 41 34 26 20 16 15 14 11 10 9 9 8 6 4 2 3 4 8 11 14 17 18 19 19 18 17 17 16 15 15 16 16 16 17 21 25 34 37 33 35
31 39 42 38 30 22 17 16 15 14 10 9 8 7 6 4 2 2 5 7 9 11 13 15 17 17 16 17 17 16 15 16 14 17 20 23 25 26 24 24 32 40 30
38 39 34 30 25 19 16 16 16 13 10 9 8 7 4 2 2 4 8 9 10 10 12 13 14 15 15 16 17 16 14 16 19 22 23 23 24 24 24 22 23 28 35
36 36 32 25 23 20 17 17 14 12 9 8 7 5 3 0 3 6 8 10 10 10 11 11 13 16 16 15 16 15 17 21 23 23 24 24 24 24 23 24 25 26 32
33 31 28 25 22 21 19 17 14 12 10 7 6 4 1 2 4 5 7 8 9 11 11 13 14 16 14 17 17 16 22 25 25 23 24 24 23 24 25 25 25 28 30
28 30 29 29 29 24 20 16 14 12 9 8 6 4 1 2 4 6 5 6 9 11 12 14 13 12 14 17 19 21 24 26 24 23 23 23 22 24 26 26 27 28 29
17 20 24 29 29 25 19 15 13 11 10 8 6 3 1 3 4 4 3 6 11 9 11 14 11 13 15 17 20 23 26 24 23 22 22 22 25 26 25 25 26 29 31
12 25 29 31 29 25 22 17 15 12 10 7 4 2 2 3 3 2 3 6 9 10 12 11 10 14 13 16 22 25 25 23 23 22 21 23 24 22 26 30 28 33 36
28 32 36 34 29 26 22 18 15 13 11 8 5 3 3 2 2 2 3 4 5 9 13 13 13 13 11 15 21 26 25 24 23 23 23 24 21 19 24 23 30 33 35
38 40 43 41 37 31 25 19 15 14 10 8 6 3 3 1 1 3 2 3 5 8 12 14 14 10 10 15 20 23 25 24 23 23 25 25 21 25 24 26 28 28 29
37 45 49 45 38 31 24 20 17 15 11 9 6 4 4 1 2 2 1 3 8 11 12 13 12 12 14 17 20 22 25 24 23 24 28 27 24 26 29 32 32 28 26
33 43 46 44 37 28 21 19 16 15 13 11 7 5 4 2 2 1 3 6 9 11 12 12 13 14 15 17 20 23 25 24 23 26 28 26 27 27 32 34 32 31 29
25 37 37 38 30 28 24 20 18 16 14 10 7 7 5 4 3 3 5 6 8 8 10 11 13 14 16 17 20 24 26 25 25 28 26 26 25 30 31 32 33 32 33
21 32 39 32 31 25 20 20 20 19 14 11 9 8 6 3 4 5 5 6 6 8 10 12 12 13 16 18 19 23 26 25 27 28 28 28 26 29 29 30 30 34 38
26 30 31 29 25 23 22 23 22 16 13 11 9 9 5 3 4 4 3 4 5 7 10 13 13 14 18 20 18 21 24 25 27 29 30 29 28 27 28 26 28 31 34
24 27 34 29 23 24 26 23 18 16 15 12 9 9 5 2 2 2 4 6 6 7 11 14 14 14 17 20 20 21 23 21 26 28 28 28 27 27 28 28 29 31 33
27 27 28 30 29 26 23 20 19 18 16 12 10 10 6 4 2 2 5 7 8 9 11 14 18 16 17 20 23 25 24 23 25 26 26 25 27 28 29 31 33 35 39
29 30 30 28 29 25 22 18 20 19 16 14 11 10 8 5 3 2 5 6 8 10 12 15 18 18 18 21 22 25 24 24 24 25 26 26 29 32 34 36 37 40 42
30 30 30 30 27 25 23 21 20 19 18 16 13 11 8 5 4 3 3 7 8 10 12 15 17 18 17 18 17 19 23 24 27 28 28 31 32 35 38 39 41 42 44
35 31 29 28 27 25 23 23 20 18 16 16 13 11 9 8 5 3 3 3 5 8 10 12 14 15 11 13 16 18 21 25 27 29 32 33 34 35 40 42 43 43 45